Location: Valencia
(39.4696°N, 0.3770°W)
Time: 16:27:24
(UTC+02:00)

ISS - Visible Passes

Search period start: 02 October 2014 00:00
Search period end: 12 October 2014 00:00
Orbit: 413 x 416 km, 51.6° (Epoch: 02 October)

Date Brightness Start Highest point End Pass type
(mag) Time Alt. Az. Time Alt. Az. Time Alt. Az.
02 Oct -2.0 06:13:24 32° SSE 06:13:24 32° SSE 06:15:24 10° SE visible
04 Oct -0.7 21:12:33 10° S 21:12:49 12° S 21:12:49 12° S visible
05 Oct -1.2 20:24:46 10° SSE 20:26:10 12° SE 20:26:32 12° ESE visible
05 Oct -0.2 21:59:08 10° WSW 21:59:26 12° WSW 21:59:26 12° WSW visible
06 Oct -3.2 21:09:56 10° SW 21:12:56 61° S 21:12:56 61° S visible
07 Oct -2.5 20:21:00 10° SSW 20:24:02 34° SE 20:26:14 16° ENE visible
07 Oct -0.5 21:57:48 10° W 21:59:07 19° WNW 21:59:07 19° WNW visible
08 Oct -2.3 21:08:08 10° WSW 21:11:21 45° NNW 21:12:13 35° N visible
09 Oct -3.2 20:18:41 10° SW 20:22:00 80° NW 20:25:10 11° NE visible
09 Oct -0.2 21:56:54 10° WNW 21:58:02 15° NW 21:58:02 15° NW visible
10 Oct -1.2 21:06:53 10° WNW 21:09:34 22° NNW 21:10:50 18° N visible
11 Oct -1.7 20:17:01 10° W 20:20:03 32° NNW 20:23:05 10° NE visible
11 Oct 0.0 21:56:16 10° NNW 21:56:23 10° NNW 21:56:23 10° NNW visible
